PROBA 1 1 26958U 01049B 22175.85326382 .00002077 00000-0 17989-3 0 9991 2 26958 97.8222 135.7376 0070429 320.7968 38.8156 14.96400788125580 BIRD 2 1 26959U 01049C 22176.80319123 .00010491 00000-0 22801-3 0 9991 2 26959 97.7631 269.1522 0005797 354.8511 5.2676 15.44532087454477 CUTE-1 1 27844U 03031E 22176.93775075 .00000179 00000-0 99710-4 0 9990 2 27844 98.6777 184.4958 0011139 79.1484 281.0947 14.22458556985070 CUBESAT XI 4 1 27848U 03031J 22176.83301622 .00000151 00000-0 88139-4 0 9999 2 27848 98.6822 184.9106 0011027 91.9548 268.2892 14.22014721984879 GENESIS 1 1 29252U 06029A 22176.87998747 .00002402 00000-0 11341-3 0 9995 2 29252 64.5229 43.4277 0059089 260.4667 98.9777 15.20741119880250 FALCONSAT 3 1 30776U 07006E 22176.48487116 .00025340 00000-0 37967-3 0 9992 2 30776 35.4297 207.6378 0003265 182.0874 177.9845 15.53982565850838 GENESIS 2 1 31789U 07028A 22176.89274700 .00003238 00000-0 15634-3 0 9998 2 31789 64.4966 86.5837 0048678 314.8366 44.8806 15.19651415827180 APRIZESAT 4 1 35684U 09041D 22176.75538302 .00000382 00000-0 57900-4 0 9999 2 35684 98.3101 190.6865 0046054 326.5844 33.2462 14.79658029696299 APRIZESAT 3 1 35686U 09041F 22176.77135315 .00000755 00000-0 85089-4 0 9993 2 35686 98.1071 263.6374 0072712 158.2040 202.2297 14.87931102699842 PROBA 2 1 36037U 09059B 22176.76091212 .00000095 00000-0 33474-4 0 9997 2 36037 98.2235 3.2028 0014762 84.2443 276.0436 14.53268025670467 APRIZESAT 5 1 37792U 11044E 22176.91065923 .00000368 00000-0 60716-4 0 9992 2 37792 98.3247 52.5891 0057330 338.6673 21.2146 14.75768852584249 APRIZESAT 6 1 37793U 11044F 22176.86244406 .00000322 00000-0 58201-4 0 9998 2 37793 98.4007 29.2262 0047306 29.9525 340.5687 14.72791829583104 TET-1 1 38710U 12039D 22176.81773829 .00047218 00000-0 36741-3 0 9993 2 38710 97.5094 258.1026 0001626 122.5463 237.5957 15.71622392558720 PROBA V 1 39159U 13021A 22176.87348923 .00000028 00000-0 30670-4 0 9996 2 39159 98.3563 212.3488 0005364 72.4988 287.6777 14.23038206474522 CUSAT 1 1 39266U 13055B 22176.85340338 .00012654 00000-0 31775-3 0 9996 2 39266 80.9800 232.9825 0583679 204.0342 153.2587 14.48190237455438 STPSAT-3 1 39380U 13064A 22176.36635563 .00015885 00000-0 33581-3 0 9992 2 39380 40.4981 351.0313 0006711 354.6646 5.4099 15.44723156480520 APRIZESAT 7 1 39416U 13066A 22176.91188998 .00000613 00000-0 77979-4 0 9993 2 39416 97.5720 156.6184 0040041 332.3299 27.5785 14.84470374465298 APRIZESAT 8 1 39425U 13066K 22176.89296467 .00000583 00000-0 78978-4 0 9997 2 39425 97.6267 147.9475 0051951 14.7397 345.5317 14.81622475464216 BUGSAT 1 1 40014U 14033E 22176.95971356 .00002816 00000-0 24954-3 0 9997 2 40014 98.1415 175.7113 0031335 12.6601 347.5400 14.96751348437415 SAUDISAT 4 1 40016U 14033G 22176.50496922 .00000311 00000-0 51710-4 0 9990 2 40016 97.6412 10.9108 0049470 114.5543 246.0835 14.75565850431583 TABLETSAT AURORA 1 40017U 14033H 22176.72341795 .00002791 00000-0 25945-3 0 9996 2 40017 98.1212 158.8427 0023802 29.0025 331.2420 14.95033251436804 APRIZESAT 9 1 40018U 14033J 22176.91034068 .00000343 00000-0 62532-4 0 9995 2 40018 97.7158 347.0489 0070979 185.2252 174.8222 14.70269091429891 APRIZESAT 10 1 40019U 14033K 22176.67696235 .00000254 00000-0 51229-4 0 9991 2 40019 97.7691 336.4892 0082854 229.4872 129.9095 14.67308921429002 AISAT 1 40054U 14034B 22176.75609455 .00001762 00000-0 24196-3 0 9995 2 40054 98.3594 348.5052 0011032 290.1716 69.8307 14.79709915430702 NLS 7.1/CANX 4 1 40055U 14034C 22176.88374188 .00000494 00000-0 80770-4 0 9994 2 40055 98.3568 334.1068 0013453 336.1065 23.9517 14.75447386429966 NLS 7.2/CANX 5 1 40056U 14034D 22176.89027163 .00000497 00000-0 81109-4 0 9994 2 40056 98.3567 334.0942 0013471 336.2719 23.7866 14.75442612420775 TDS 1 1 40076U 14037H 22176.72701821 .00001410 00000-0 16948-3 0 9995 2 40076 98.3909 50.0638 0007993 51.1530 309.0395 14.85682947430934 TIANTUO 2 1 40144U 14053B 22176.90645090 .00004710 00000-0 12778-3 0 9997 2 40144 97.1937 256.6721 0011444 160.6940 319.7087 15.38034323436392 TECHNOSAT 1 42829U 17042E 22176.86984752 .00001052 00000-0 10912-3 0 9990 2 42829 97.4204 30.5172 0013545 346.0658 14.0186 14.91883722269340 FLYING LAPTOP 1 42831U 17042G 22176.84683181 .00000320 00000-0 36873-4 0 9995 2 42831 97.4233 30.8170 0013529 346.6581 13.4274 14.91799384269340